TimeMST,TemperatureF,Dew PointF,Humidity,Sea Level PressureIn,VisibilityMPH,Wind Direction,Wind SpeedMPH,Gust SpeedMPH,PrecipitationIn,Events,Conditions,WindDirDegrees,DateUTC
12:53 AM,26.1,1.9,35,29.85,10.0,North,5.8,-,N/A,,Clear,10,2014-02-22 07:53:00
1:53 AM,23.0,3.0,42,29.84,10.0,NE,6.9,-,N/A,,Clear,40,2014-02-22 08:53:00
2:53 AM,23.0,1.9,40,29.83,10.0,North,5.8,-,N/A,,Clear,360,2014-02-22 09:53:00
3:53 AM,21.0,1.9,44,29.85,10.0,North,5.8,-,N/A,,Clear,10,2014-02-22 10:53:00
4:53 AM,23.0,3.0,42,29.85,10.0,NNE,6.9,-,N/A,,Clear,30,2014-02-22 11:53:00
5:53 AM,23.0,3.0,42,29.91,10.0,NE,3.5,-,N/A,,Clear,50,2014-02-22 12:53:00
6:53 AM,24.1,3.9,42,29.91,10.0,NE,5.8,-,N/A,,Clear,50,2014-02-22 13:53:00
7:53 AM,30.9,7.0,37,29.90,10.0,NE,3.5,-,N/A,,Clear,50,2014-02-22 14:53:00
8:53 AM,39.9,7.0,26,29.88,10.0,NE,3.5,-,N/A,,Clear,40,2014-02-22 15:53:00
9:53 AM,45.0,10.0,24,29.86,10.0,South,8.1,-,N/A,,Clear,180,2014-02-22 16:53:00
10:53 AM,51.1,12.0,21,29.81,10.0,South,10.4,-,N/A,,Clear,190,2014-02-22 17:53:00
11:53 AM,57.0,6.1,13,29.76,10.0,West,23.0,31.1,N/A,,Clear,270,2014-02-22 18:53:00
12:53 PM,57.9,1.9,10,29.72,10.0,WNW,16.1,27.6,N/A,,Clear,300,2014-02-22 19:53:00
1:53 PM,57.9,1.9,10,29.72,10.0,WNW,15.0,35.7,N/A,,Clear,290,2014-02-22 20:53:00
2:53 PM,57.9,-0.0,10,29.71,10.0,West,25.3,34.5,N/A,,Clear,260,2014-02-22 21:53:00
3:53 PM,57.0,1.9,11,29.74,10.0,WNW,21.9,26.5,N/A,,Clear,300,2014-02-22 22:53:00
4:53 PM,54.0,-0.9,11,29.77,10.0,WNW,21.9,33.4,N/A,,Clear,300,2014-02-22 23:53:00
5:53 PM,50.0,1.9,14,29.80,10.0,West,19.6,29.9,N/A,,Clear,280,2014-02-23 00:53:00
6:53 PM,48.0,5.0,17,29.85,10.0,West,12.7,19.6,N/A,,Clear,280,2014-02-23 01:53:00
7:53 PM,46.0,6.1,20,29.82,10.0,West,17.3,26.5,N/A,,Clear,280,2014-02-23 02:53:00
8:53 PM,46.0,6.1,20,29.78,10.0,West,26.5,36.8,N/A,,Clear,270,2014-02-23 03:53:00
9:53 PM,46.9,6.1,19,29.79,10.0,WNW,17.3,25.3,N/A,,Clear,290,2014-02-23 04:53:00
10:53 PM,45.0,5.0,19,29.79,10.0,WNW,10.4,23.0,N/A,,Clear,290,2014-02-23 05:53:00
11:53 PM,37.9,5.0,25,29.81,10.0,Variable,4.6,-,N/A,,Clear,0,2014-02-23 06:53:00